Year,Month,Day,Hour,Minute,Value (Times are PST for temperature in C)
2014,06,23,00,00,16.60
2014,06,23,00,01,16.60
2014,06,23,00,02,16.50
2014,06,23,00,03,16.50
2014,06,23,00,04,16.50
2014,06,23,00,05,16.50
2014,06,23,00,06,16.50
2014,06,23,00,07,16.50
2014,06,23,00,08,16.50
2014,06,23,00,09,16.50
2014,06,23,00,10,16.40
2014,06,23,00,11,16.40
2014,06,23,00,12,16.30
2014,06,23,00,13,16.30
2014,06,23,00,14,16.30
2014,06,23,00,15,16.20
2014,06,23,00,16,16.20
2014,06,23,00,17,16.10
2014,06,23,00,18,16.10
2014,06,23,00,19,16.00
2014,06,23,00,20,16.00
2014,06,23,00,21,15.90
2014,06,23,00,22,15.80
2014,06,23,00,23,15.80
2014,06,23,00,24,15.70
2014,06,23,00,25,15.70
2014,06,23,00,26,15.60
2014,06,23,00,27,15.60
2014,06,23,00,28,15.60
2014,06,23,00,29,15.50
2014,06,23,00,30,15.50
2014,06,23,00,31,15.40
2014,06,23,00,32,15.40
2014,06,23,00,33,15.40
2014,06,23,00,34,15.40
2014,06,23,00,35,15.30
2014,06,23,00,36,15.30
2014,06,23,00,37,15.40
2014,06,23,00,38,15.40
2014,06,23,00,39,15.40
2014,06,23,00,40,15.50
2014,06,23,00,41,15.50
2014,06,23,00,42,15.60
2014,06,23,00,43,15.60
2014,06,23,00,44,15.60
2014,06,23,00,45,15.60
2014,06,23,00,46,15.60
2014,06,23,00,47,15.60
2014,06,23,00,48,15.70
2014,06,23,00,49,15.70
2014,06,23,00,50,15.70
2014,06,23,00,51,15.70
2014,06,23,00,52,15.80
2014,06,23,00,53,15.80
2014,06,23,00,54,15.80
2014,06,23,00,55,15.70
2014,06,23,00,56,15.70
2014,06,23,00,57,15.70
2014,06,23,00,58,15.70
2014,06,23,00,59,15.70
2014,06,23,01,00,15.70
2014,06,23,01,01,15.60
2014,06,23,01,02,15.60
2014,06,23,01,03,15.60
2014,06,23,01,04,15.50
2014,06,23,01,05,15.50
2014,06,23,01,06,15.40
2014,06,23,01,07,15.40
2014,06,23,01,08,15.40
2014,06,23,01,09,15.40
2014,06,23,01,10,15.40
2014,06,23,01,11,15.30
2014,06,23,01,12,15.30
2014,06,23,01,13,15.30
2014,06,23,01,14,15.30
2014,06,23,01,15,15.30
2014,06,23,01,16,15.20
2014,06,23,01,17,15.20
2014,06,23,01,18,15.20
2014,06,23,01,19,15.20
2014,06,23,01,20,15.20
2014,06,23,01,21,15.20
2014,06,23,01,22,15.20
2014,06,23,01,23,15.20
2014,06,23,01,24,15.20
2014,06,23,01,25,15.10
2014,06,23,01,26,15.10
2014,06,23,01,27,15.10
2014,06,23,01,28,15.20
2014,06,23,01,29,15.20
2014,06,23,01,30,15.20
2014,06,23,01,31,15.20
2014,06,23,01,32,15.30
2014,06,23,01,33,15.30
2014,06,23,01,34,15.30
2014,06,23,01,35,15.40
2014,06,23,01,36,15.50
2014,06,23,01,37,15.60
2014,06,23,01,38,15.70
2014,06,23,01,39,15.80
2014,06,23,01,40,15.90
2014,06,23,01,41,15.90
2014,06,23,01,42,16.00
2014,06,23,01,43,16.10
2014,06,23,01,44,16.10
2014,06,23,01,45,16.20
2014,06,23,01,46,16.20
2014,06,23,01,47,16.30
2014,06,23,01,48,16.30
2014,06,23,01,49,16.30
2014,06,23,01,50,16.30
2014,06,23,01,51,16.30
2014,06,23,01,52,16.30
2014,06,23,01,53,16.30
2014,06,23,01,54,16.30
2014,06,23,01,55,16.40
2014,06,23,01,56,16.40
2014,06,23,01,57,16.40
2014,06,23,01,58,16.40
2014,06,23,01,59,16.40
2014,06,23,02,00,16.40
2014,06,23,02,01,16.40
2014,06,23,02,02,16.40
2014,06,23,02,03,16.40
2014,06,23,02,04,16.40
2014,06,23,02,05,16.40
2014,06,23,02,06,16.40
2014,06,23,02,07,16.40
2014,06,23,02,08,16.40
2014,06,23,02,09,16.40
2014,06,23,02,10,16.40
2014,06,23,02,11,16.40
2014,06,23,02,12,16.30
2014,06,23,02,13,16.30
2014,06,23,02,14,16.30
2014,06,23,02,15,16.20
2014,06,23,02,16,16.20
2014,06,23,02,17,16.20
2014,06,23,02,18,16.20
2014,06,23,02,19,16.10
2014,06,23,02,20,16.10
2014,06,23,02,21,16.10
2014,06,23,02,22,16.10
2014,06,23,02,23,16.10
2014,06,23,02,24,16.00
2014,06,23,02,25,16.00
2014,06,23,02,26,16.00
2014,06,23,02,27,16.00
2014,06,23,02,28,15.90
2014,06,23,02,29,15.90
2014,06,23,02,30,15.90
2014,06,23,02,31,15.90
2014,06,23,02,32,15.80
2014,06,23,02,33,15.80
2014,06,23,02,34,15.80
2014,06,23,02,35,15.80
2014,06,23,02,36,15.70
2014,06,23,02,37,15.70
2014,06,23,02,38,15.60
2014,06,23,02,39,15.50
2014,06,23,02,40,15.50
2014,06,23,02,41,15.40
2014,06,23,02,42,15.30
2014,06,23,02,43,15.20
2014,06,23,02,44,15.20
2014,06,23,02,45,15.10
2014,06,23,02,46,15.10
2014,06,23,02,47,15.00
2014,06,23,02,48,14.90
2014,06,23,02,49,14.90
2014,06,23,02,50,14.80
2014,06,23,02,51,14.80
2014,06,23,02,52,14.80
2014,06,23,02,53,14.80
2014,06,23,02,54,14.80
2014,06,23,02,55,14.90
2014,06,23,02,56,14.90
2014,06,23,02,57,14.90
2014,06,23,02,58,14.90
2014,06,23,02,59,14.90
2014,06,23,03,00,14.90
2014,06,23,03,01,14.90
2014,06,23,03,02,14.90
2014,06,23,03,03,15.00
2014,06,23,03,04,15.00
2014,06,23,03,05,15.00
2014,06,23,03,06,15.00
2014,06,23,03,07,14.90
2014,06,23,03,08,14.90
2014,06,23,03,09,14.90
2014,06,23,03,10,14.80
2014,06,23,03,11,14.80
2014,06,23,03,12,14.80
2014,06,23,03,13,14.80
2014,06,23,03,14,14.80
2014,06,23,03,15,14.90
2014,06,23,03,16,14.90
2014,06,23,03,17,14.90
2014,06,23,03,18,14.90
2014,06,23,03,19,14.90
2014,06,23,03,20,14.90
2014,06,23,03,21,14.90
2014,06,23,03,22,14.90
2014,06,23,03,23,14.90
2014,06,23,03,24,14.90
2014,06,23,03,25,15.00
2014,06,23,03,26,15.00
2014,06,23,03,27,15.00
2014,06,23,03,28,15.00
2014,06,23,03,29,15.10
2014,06,23,03,30,15.10
2014,06,23,03,31,15.00
2014,06,23,03,32,15.10
2014,06,23,03,33,15.00
2014,06,23,03,34,15.00
2014,06,23,03,35,15.00
2014,06,23,03,36,15.00
2014,06,23,03,37,15.00
2014,06,23,03,38,15.00
2014,06,23,03,39,15.00
2014,06,23,03,40,15.00
2014,06,23,03,41,15.00
2014,06,23,03,42,14.90
2014,06,23,03,43,14.90
2014,06,23,03,44,14.90
2014,06,23,03,45,14.90
2014,06,23,03,46,14.80
2014,06,23,03,47,14.80
2014,06,23,03,48,14.80
2014,06,23,03,49,14.80
2014,06,23,03,50,14.80
2014,06,23,03,51,14.70
2014,06,23,03,52,14.70
2014,06,23,03,53,14.70
2014,06,23,03,54,14.60
2014,06,23,03,55,14.60
2014,06,23,03,56,14.50
2014,06,23,03,57,14.40
2014,06,23,03,58,14.40
2014,06,23,03,59,14.30
2014,06,23,04,00,14.20
2014,06,23,04,01,14.20
2014,06,23,04,02,14.10
2014,06,23,04,03,14.00
2014,06,23,04,04,14.00
2014,06,23,04,05,13.90
2014,06,23,04,06,13.90
2014,06,23,04,07,13.80
2014,06,23,04,08,13.80
2014,06,23,04,09,13.80
2014,06,23,04,10,13.70
2014,06,23,04,11,13.70
2014,06,23,04,12,13.60
2014,06,23,04,13,13.60
2014,06,23,04,14,13.60
2014,06,23,04,15,13.60
2014,06,23,04,16,13.60
2014,06,23,04,17,13.60
2014,06,23,04,18,13.60
2014,06,23,04,19,13.60
2014,06,23,04,20,13.60
2014,06,23,04,21,13.60
2014,06,23,04,22,13.60
2014,06,23,04,23,13.60
2014,06,23,04,24,13.60
2014,06,23,04,25,13.60
2014,06,23,04,26,13.60
2014,06,23,04,27,13.70
2014,06,23,04,28,13.70
2014,06,23,04,29,13.70
2014,06,23,04,30,13.70
2014,06,23,04,31,13.70
2014,06,23,04,32,13.70
2014,06,23,04,33,13.80
2014,06,23,04,34,13.80
2014,06,23,04,35,13.80
2014,06,23,04,36,13.80
2014,06,23,04,37,13.90
2014,06,23,04,38,13.90
2014,06,23,04,39,13.90
2014,06,23,04,40,13.90
2014,06,23,04,41,14.00
2014,06,23,04,42,14.00
2014,06,23,04,43,14.00
2014,06,23,04,44,14.00
2014,06,23,04,45,14.00
2014,06,23,04,46,14.00
2014,06,23,04,47,14.00
2014,06,23,04,48,14.00
2014,06,23,04,49,14.00
2014,06,23,04,50,14.00
2014,06,23,04,51,14.00
2014,06,23,04,52,14.00
2014,06,23,04,53,14.10
2014,06,23,04,54,14.10
2014,06,23,04,55,14.10
2014,06,23,04,56,14.10
2014,06,23,04,57,14.10
2014,06,23,04,58,14.10
2014,06,23,04,59,14.20
2014,06,23,05,00,14.20
2014,06,23,05,01,14.20
2014,06,23,05,02,14.20
2014,06,23,05,03,14.30
2014,06,23,05,04,14.30
2014,06,23,05,05,14.30
2014,06,23,05,06,14.30
2014,06,23,05,07,14.30
2014,06,23,05,08,14.30
2014,06,23,05,09,14.30
2014,06,23,05,10,14.30
2014,06,23,05,11,14.30
2014,06,23,05,12,14.30
2014,06,23,05,13,14.30
2014,06,23,05,14,14.30
2014,06,23,05,15,14.20
2014,06,23,05,16,14.20
2014,06,23,05,17,14.20
2014,06,23,05,18,14.20
2014,06,23,05,19,14.20
2014,06,23,05,20,14.10
2014,06,23,05,21,14.10
2014,06,23,05,22,14.10
2014,06,23,05,23,14.10
2014,06,23,05,24,14.00
2014,06,23,05,25,14.00
2014,06,23,05,26,13.90
2014,06,23,05,27,13.90
2014,06,23,05,28,13.90
2014,06,23,05,29,13.90
2014,06,23,05,30,13.90
2014,06,23,05,31,13.90
2014,06,23,05,32,13.80
2014,06,23,05,33,13.80
2014,06,23,05,34,13.80
2014,06,23,05,35,13.80
2014,06,23,05,36,13.80
2014,06,23,05,37,13.80
2014,06,23,05,38,13.80
2014,06,23,05,39,13.80
2014,06,23,05,40,13.80
2014,06,23,05,41,13.80
2014,06,23,05,42,13.80
2014,06,23,05,43,13.90
2014,06,23,05,44,13.90
2014,06,23,05,45,13.90
2014,06,23,05,46,13.90
2014,06,23,05,47,13.90
2014,06,23,05,48,13.90
2014,06,23,05,49,13.90
2014,06,23,05,50,13.90
2014,06,23,05,51,13.90
2014,06,23,05,52,14.00
2014,06,23,05,53,14.00
2014,06,23,05,54,14.00
2014,06,23,05,55,14.10
2014,06,23,05,56,14.10
2014,06,23,05,57,14.10
2014,06,23,05,58,14.20
2014,06,23,05,59,14.20
2014,06,23,06,00,14.20
2014,06,23,06,01,14.30
2014,06,23,06,02,14.30
2014,06,23,06,03,14.30
2014,06,23,06,04,14.40
2014,06,23,06,05,14.40
2014,06,23,06,06,14.40
2014,06,23,06,07,14.40
2014,06,23,06,08,14.50
2014,06,23,06,09,14.50
2014,06,23,06,10,14.50
2014,06,23,06,11,14.60
2014,06,23,06,12,14.60
2014,06,23,06,13,14.60
2014,06,23,06,14,14.60
2014,06,23,06,15,14.60
2014,06,23,06,16,14.60
2014,06,23,06,17,14.70
2014,06,23,06,18,14.70
2014,06,23,06,19,14.70
2014,06,23,06,20,14.70
2014,06,23,06,21,14.70
2014,06,23,06,22,14.70
2014,06,23,06,23,14.70
2014,06,23,06,24,14.70
2014,06,23,06,25,14.80
2014,06,23,06,26,14.80
2014,06,23,06,27,14.80
2014,06,23,06,28,14.90
2014,06,23,06,29,14.90
2014,06,23,06,30,15.00
2014,06,23,06,31,15.00
2014,06,23,06,32,15.00
2014,06,23,06,33,15.10
2014,06,23,06,34,15.10
2014,06,23,06,35,15.20
2014,06,23,06,36,15.20
2014,06,23,06,37,15.30
2014,06,23,06,38,15.30
2014,06,23,06,39,15.30
2014,06,23,06,40,15.40
2014,06,23,06,41,15.40
2014,06,23,06,42,15.50
2014,06,23,06,43,15.60
2014,06,23,06,44,15.70
2014,06,23,06,45,15.70
2014,06,23,06,46,15.80
2014,06,23,06,47,15.90
2014,06,23,06,48,15.90
2014,06,23,06,49,15.90
2014,06,23,06,50,16.00
2014,06,23,06,51,16.00
2014,06,23,06,52,16.10
2014,06,23,06,53,16.10
2014,06,23,06,54,16.10
2014,06,23,06,55,16.10
2014,06,23,06,56,16.10
2014,06,23,06,57,16.10
2014,06,23,06,58,16.10
2014,06,23,06,59,16.00
2014,06,23,07,00,16.00
2014,06,23,07,01,16.00
2014,06,23,07,02,16.00
2014,06,23,07,03,15.90
2014,06,23,07,04,15.90
2014,06,23,07,05,15.90
2014,06,23,07,06,15.90
2014,06,23,07,07,15.90
2014,06,23,07,08,16.00
2014,06,23,07,09,16.00
2014,06,23,07,10,16.00
2014,06,23,07,11,16.00
2014,06,23,07,12,16.00
2014,06,23,07,13,16.00
2014,06,23,07,14,16.00
2014,06,23,07,15,16.00
2014,06,23,07,16,16.10
2014,06,23,07,17,16.10
2014,06,23,07,18,16.10
2014,06,23,07,19,16.10
2014,06,23,07,20,16.10
2014,06,23,07,21,16.10
2014,06,23,07,22,16.10
2014,06,23,07,23,16.00
2014,06,23,07,24,16.00
2014,06,23,07,25,16.00
2014,06,23,07,26,15.90
2014,06,23,07,27,15.90
2014,06,23,07,28,15.90
2014,06,23,07,29,15.90
2014,06,23,07,30,15.90
2014,06,23,07,31,16.00
2014,06,23,07,32,16.00
2014,06,23,07,33,16.00
2014,06,23,07,34,16.10
2014,06,23,07,35,16.10
2014,06,23,07,36,16.10
2014,06,23,07,37,16.10
2014,06,23,07,38,16.20
2014,06,23,07,39,16.20
2014,06,23,07,40,16.30
2014,06,23,07,41,16.30
2014,06,23,07,42,16.30
2014,06,23,07,43,16.40
2014,06,23,07,44,16.50
2014,06,23,07,45,16.50
2014,06,23,07,46,16.60
2014,06,23,07,47,16.60
2014,06,23,07,48,16.70
2014,06,23,07,49,16.70
2014,06,23,07,50,16.70
2014,06,23,07,51,16.70
2014,06,23,07,52,16.80
2014,06,23,07,53,16.80
2014,06,23,07,54,16.80
2014,06,23,07,55,16.90
2014,06,23,07,56,16.90
2014,06,23,07,57,16.90
2014,06,23,07,58,17.00
2014,06,23,07,59,17.00
2014,06,23,08,00,17.00
2014,06,23,08,01,17.10
2014,06,23,08,02,17.10
2014,06,23,08,03,17.10
2014,06,23,08,04,17.20
2014,06,23,08,05,17.20
2014,06,23,08,06,17.30
2014,06,23,08,07,17.40
2014,06,23,08,08,17.40
2014,06,23,08,09,17.50
2014,06,23,08,10,17.60
2014,06,23,08,11,17.70
2014,06,23,08,12,17.70
2014,06,23,08,13,17.70
2014,06,23,08,14,17.70
2014,06,23,08,15,17.70
2014,06,23,08,16,17.60
2014,06,23,08,17,17.60
2014,06,23,08,18,17.60
2014,06,23,08,19,17.50
2014,06,23,08,20,17.50
2014,06,23,08,21,17.50
2014,06,23,08,22,17.50
2014,06,23,08,23,17.40
2014,06,23,08,24,17.40
2014,06,23,08,25,17.40
2014,06,23,08,26,17.40
2014,06,23,08,27,17.40
2014,06,23,08,28,17.40
2014,06,23,08,29,17.50
2014,06,23,08,30,17.50
2014,06,23,08,31,17.50
2014,06,23,08,32,17.60
2014,06,23,08,33,17.60
2014,06,23,08,34,17.60
2014,06,23,08,35,17.60
2014,06,23,08,36,17.60
2014,06,23,08,37,17.60
2014,06,23,08,38,17.60
2014,06,23,08,39,17.60
2014,06,23,08,40,17.70
2014,06,23,08,41,17.80
2014,06,23,08,42,17.80
2014,06,23,08,43,17.90
2014,06,23,08,44,17.90
2014,06,23,08,45,18.00
2014,06,23,08,46,18.00
2014,06,23,08,47,18.00
2014,06,23,08,48,18.10
2014,06,23,08,49,18.10
2014,06,23,08,50,18.10
2014,06,23,08,51,18.10
2014,06,23,08,52,18.00
2014,06,23,08,53,18.00
2014,06,23,08,54,18.00
2014,06,23,08,55,17.90
2014,06,23,08,56,17.90
2014,06,23,08,57,17.90
2014,06,23,08,58,17.90
2014,06,23,08,59,17.90
2014,06,23,09,00,17.90
2014,06,23,09,01,17.90
2014,06,23,09,02,18.00
2014,06,23,09,03,18.00
2014,06,23,09,04,18.10
2014,06,23,09,05,18.10
2014,06,23,09,06,18.10
2014,06,23,09,07,18.10
2014,06,23,09,08,18.10
2014,06,23,09,09,18.10
2014,06,23,09,10,18.10
2014,06,23,09,11,18.10
2014,06,23,09,12,18.10
2014,06,23,09,13,18.10
2014,06,23,09,14,18.10
2014,06,23,09,15,18.10
2014,06,23,09,16,18.10
2014,06,23,09,17,18.20
2014,06,23,09,18,18.20
2014,06,23,09,19,18.20
2014,06,23,09,20,18.20
2014,06,23,09,21,18.20
2014,06,23,09,22,18.20
2014,06,23,09,23,18.20
2014,06,23,09,24,18.30
2014,06,23,09,25,18.30
2014,06,23,09,26,18.30
2014,06,23,09,27,18.40
2014,06,23,09,28,18.40
2014,06,23,09,29,18.50
2014,06,23,09,30,18.50
2014,06,23,09,31,18.50
2014,06,23,09,32,18.50
2014,06,23,09,33,18.60
2014,06,23,09,34,18.60
2014,06,23,09,35,18.60
2014,06,23,09,36,18.60
2014,06,23,09,37,18.60
2014,06,23,09,38,18.60
2014,06,23,09,39,18.60
2014,06,23,09,40,18.70
2014,06,23,09,41,18.70
2014,06,23,09,42,18.70
2014,06,23,09,43,18.80
2014,06,23,09,44,18.90
2014,06,23,09,45,18.90
2014,06,23,09,46,18.90
2014,06,23,09,47,19.00
2014,06,23,09,48,19.00
2014,06,23,09,49,19.10
2014,06,23,09,50,19.10
2014,06,23,09,51,19.10
2014,06,23,09,52,19.10
2014,06,23,09,53,19.20
2014,06,23,09,54,19.20
2014,06,23,09,55,19.20
2014,06,23,09,56,19.20
2014,06,23,09,57,19.30
2014,06,23,09,58,19.30
2014,06,23,09,59,19.30
2014,06,23,10,00,19.30
2014,06,23,10,01,19.30
2014,06,23,10,02,19.40
2014,06,23,10,03,19.50
2014,06,23,10,04,19.60
2014,06,23,10,05,19.60
2014,06,23,10,06,19.70
2014,06,23,10,07,19.70
2014,06,23,10,08,19.80
2014,06,23,10,09,19.70
2014,06,23,10,10,19.70
2014,06,23,10,11,19.70
2014,06,23,10,12,19.70
2014,06,23,10,13,19.80
2014,06,23,10,14,19.80
2014,06,23,10,15,19.80
2014,06,23,10,16,19.80
2014,06,23,10,17,19.80
2014,06,23,10,18,19.80
2014,06,23,10,19,19.80
2014,06,23,10,20,19.90
2014,06,23,10,21,19.90
2014,06,23,10,22,19.80
2014,06,23,10,23,19.80
2014,06,23,10,24,19.80
2014,06,23,10,25,19.80
2014,06,23,10,26,19.80
2014,06,23,10,27,19.80
2014,06,23,10,28,19.70
2014,06,23,10,29,19.70
2014,06,23,10,30,19.70
2014,06,23,10,31,19.70
2014,06,23,10,32,19.70
2014,06,23,10,33,19.80
2014,06,23,10,34,19.90
2014,06,23,10,35,20.00
2014,06,23,10,36,20.00
2014,06,23,10,37,20.10
2014,06,23,10,38,20.20
2014,06,23,10,39,20.20
2014,06,23,10,40,20.20
2014,06,23,10,41,20.20
2014,06,23,10,42,20.20
2014,06,23,10,43,20.20
2014,06,23,10,44,20.20
2014,06,23,10,45,20.20
2014,06,23,10,46,20.20
2014,06,23,10,47,20.20
2014,06,23,10,48,20.20
2014,06,23,10,49,20.10
2014,06,23,10,50,20.10
2014,06,23,10,51,20.10
2014,06,23,10,52,20.10
2014,06,23,10,53,20.10
2014,06,23,10,54,20.20
2014,06,23,10,55,20.30
2014,06,23,10,56,20.40
2014,06,23,10,57,20.40
2014,06,23,10,58,20.50
2014,06,23,10,59,20.50
2014,06,23,11,00,20.50
2014,06,23,11,01,20.50
2014,06,23,11,02,20.40
2014,06,23,11,03,20.40
2014,06,23,11,04,20.30
2014,06,23,11,05,20.30
2014,06,23,11,06,20.20
2014,06,23,11,07,20.20
2014,06,23,11,08,20.20
2014,06,23,11,09,20.20
2014,06,23,11,10,20.20
2014,06,23,11,11,20.20
2014,06,23,11,12,20.30
2014,06,23,11,13,20.30
2014,06,23,11,14,20.40
2014,06,23,11,15,20.40
2014,06,23,11,16,20.40
2014,06,23,11,17,20.50
2014,06,23,11,18,20.50
2014,06,23,11,19,20.50
2014,06,23,11,20,20.50
2014,06,23,11,21,20.60
2014,06,23,11,22,20.60
2014,06,23,11,23,20.60
2014,06,23,11,24,20.60
2014,06,23,11,25,20.60
2014,06,23,11,26,20.70
2014,06,23,11,27,20.60
2014,06,23,11,28,20.60
2014,06,23,11,29,20.70
2014,06,23,11,30,20.80
2014,06,23,11,31,20.80
2014,06,23,11,32,20.90
2014,06,23,11,33,20.90
2014,06,23,11,34,20.90
2014,06,23,11,35,20.90
2014,06,23,11,36,20.90
2014,06,23,11,37,20.90
2014,06,23,11,38,21.00
2014,06,23,11,39,21.10
2014,06,23,11,40,21.20
2014,06,23,11,41,21.30
2014,06,23,11,42,21.50
2014,06,23,11,43,21.70
2014,06,23,11,44,21.80
2014,06,23,11,45,21.90
2014,06,23,11,46,22.00
2014,06,23,11,47,21.90
2014,06,23,11,48,21.80
2014,06,23,11,49,21.70
2014,06,23,11,50,21.60
2014,06,23,11,51,21.60
2014,06,23,11,52,21.70
2014,06,23,11,53,21.80
2014,06,23,11,54,21.90
2014,06,23,11,55,21.90
2014,06,23,11,56,21.90
2014,06,23,11,57,21.80
2014,06,23,11,58,21.80
2014,06,23,11,59,21.90
2014,06,23,12,00,21.90
2014,06,23,12,01,21.90
2014,06,23,12,02,21.90
2014,06,23,12,03,21.90
2014,06,23,12,04,21.90
2014,06,23,12,05,21.90
2014,06,23,12,06,21.90
2014,06,23,12,07,21.80
2014,06,23,12,08,21.70
2014,06,23,12,09,21.70
2014,06,23,12,10,21.70
2014,06,23,12,11,21.60
2014,06,23,12,12,21.60
2014,06,23,12,13,21.50
2014,06,23,12,14,21.30
2014,06,23,12,15,21.20
2014,06,23,12,16,21.20
2014,06,23,12,17,21.20
2014,06,23,12,18,21.10
2014,06,23,12,19,21.10
2014,06,23,12,20,21.00
2014,06,23,12,21,21.00
2014,06,23,12,22,21.00
2014,06,23,12,23,20.90
2014,06,23,12,24,21.00
2014,06,23,12,25,21.00
2014,06,23,12,26,21.00
2014,06,23,12,27,21.00
2014,06,23,12,28,21.00
2014,06,23,12,29,21.00
2014,06,23,12,30,21.00
2014,06,23,12,31,20.90
2014,06,23,12,32,20.90
2014,06,23,12,33,20.90
2014,06,23,12,34,20.90
2014,06,23,12,35,20.90
2014,06,23,12,36,20.90
2014,06,23,12,37,20.90
2014,06,23,12,38,20.80
2014,06,23,12,39,20.80
2014,06,23,12,40,20.80
2014,06,23,12,41,20.90
2014,06,23,12,42,20.90
2014,06,23,12,43,21.00
2014,06,23,12,44,21.10
2014,06,23,12,45,21.00
2014,06,23,12,46,21.00
2014,06,23,12,47,21.00
2014,06,23,12,48,21.00
2014,06,23,12,49,21.00
2014,06,23,12,50,21.10
2014,06,23,12,51,21.10
2014,06,23,12,52,21.10
2014,06,23,12,53,21.10
2014,06,23,12,54,21.10
2014,06,23,12,55,21.20
2014,06,23,12,56,21.20
2014,06,23,12,57,21.20
2014,06,23,12,58,21.20
2014,06,23,12,59,21.10
2014,06,23,13,00,21.20
2014,06,23,13,01,21.30
2014,06,23,13,02,21.30
2014,06,23,13,03,21.30
2014,06,23,13,04,21.20
2014,06,23,13,05,21.10
2014,06,23,13,06,21.10
2014,06,23,13,07,21.00
2014,06,23,13,08,21.00
2014,06,23,13,09,20.90
2014,06,23,13,10,20.80
2014,06,23,13,11,20.80
2014,06,23,13,12,20.80
2014,06,23,13,13,20.80
2014,06,23,13,14,20.70
2014,06,23,13,15,20.70
2014,06,23,13,16,20.70
2014,06,23,13,17,20.80
2014,06,23,13,18,20.80
2014,06,23,13,19,20.80
2014,06,23,13,20,20.80
2014,06,23,13,21,20.80
2014,06,23,13,22,20.80
2014,06,23,13,23,20.80
2014,06,23,13,24,20.80
2014,06,23,13,25,20.90
2014,06,23,13,26,20.90
2014,06,23,13,27,21.00
2014,06,23,13,28,21.00
2014,06,23,13,29,21.00
2014,06,23,13,30,21.10
2014,06,23,13,31,21.20
2014,06,23,13,32,21.20
2014,06,23,13,33,21.10
2014,06,23,13,34,21.00
2014,06,23,13,35,21.00
2014,06,23,13,36,21.00
2014,06,23,13,37,21.00
2014,06,23,13,38,21.10
2014,06,23,13,39,21.20
2014,06,23,13,40,21.30
2014,06,23,13,41,21.40
2014,06,23,13,42,21.40
2014,06,23,13,43,21.50
2014,06,23,13,44,21.60
2014,06,23,13,45,21.70
2014,06,23,13,46,21.80
2014,06,23,13,47,21.90
2014,06,23,13,48,22.00
2014,06,23,13,49,22.10
2014,06,23,13,50,22.10
2014,06,23,13,51,22.10
2014,06,23,13,52,22.10
2014,06,23,13,53,22.10
2014,06,23,13,54,22.00
2014,06,23,13,55,21.90
2014,06,23,13,56,21.90
2014,06,23,13,57,21.80
2014,06,23,13,58,21.80
2014,06,23,13,59,21.70
2014,06,23,14,00,21.70
2014,06,23,14,01,21.70
2014,06,23,14,02,21.60
2014,06,23,14,03,21.60
2014,06,23,14,04,21.60
2014,06,23,14,05,21.50
2014,06,23,14,06,21.50
2014,06,23,14,07,21.50
2014,06,23,14,08,21.50
2014,06,23,14,09,21.50
2014,06,23,14,10,21.50
2014,06,23,14,11,21.40
2014,06,23,14,12,21.40
2014,06,23,14,13,21.30
2014,06,23,14,14,21.20
2014,06,23,14,15,21.20
2014,06,23,14,16,21.10
2014,06,23,14,17,21.00
2014,06,23,14,18,21.00
2014,06,23,14,19,20.90
2014,06,23,14,20,20.80
2014,06,23,14,21,20.70
2014,06,23,14,22,20.70
2014,06,23,14,23,20.60
2014,06,23,14,24,20.60
2014,06,23,14,25,20.60
2014,06,23,14,26,20.60
2014,06,23,14,27,20.60
2014,06,23,14,28,20.60
2014,06,23,14,29,20.60
2014,06,23,14,30,20.60
2014,06,23,14,31,20.60
2014,06,23,14,32,20.60
2014,06,23,14,33,20.60
2014,06,23,14,34,20.50
2014,06,23,14,35,20.50
2014,06,23,14,36,20.50
2014,06,23,14,37,20.50
2014,06,23,14,38,20.60
2014,06,23,14,39,20.60
2014,06,23,14,40,20.60
2014,06,23,14,41,20.70
2014,06,23,14,42,20.70
2014,06,23,14,43,20.70
2014,06,23,14,44,20.70
2014,06,23,14,45,20.70
2014,06,23,14,46,20.70
2014,06,23,14,47,20.70
2014,06,23,14,48,20.70
2014,06,23,14,49,20.70
2014,06,23,14,50,20.70
2014,06,23,14,51,20.70
2014,06,23,14,52,20.70
2014,06,23,14,53,20.70
2014,06,23,14,54,20.80
2014,06,23,14,55,20.80
2014,06,23,14,56,20.90
2014,06,23,14,57,20.90
2014,06,23,14,58,21.00
2014,06,23,14,59,21.00
2014,06,23,15,00,21.10
2014,06,23,15,01,21.10
2014,06,23,15,02,21.10
2014,06,23,15,03,21.10
2014,06,23,15,04,21.10
2014,06,23,15,05,21.10
2014,06,23,15,06,21.10
2014,06,23,15,07,21.00
2014,06,23,15,08,21.00
2014,06,23,15,09,21.00
2014,06,23,15,10,21.00
2014,06,23,15,11,21.00
2014,06,23,15,12,21.00
2014,06,23,15,13,20.90
2014,06,23,15,14,20.90
2014,06,23,15,15,20.80
2014,06,23,15,16,20.80
2014,06,23,15,17,20.80
2014,06,23,15,18,20.70
2014,06,23,15,19,20.70
2014,06,23,15,20,20.60
2014,06,23,15,21,20.60
2014,06,23,15,22,20.60
2014,06,23,15,23,20.60
2014,06,23,15,24,20.50
2014,06,23,15,25,20.50
2014,06,23,15,26,20.40
2014,06,23,15,27,20.30
2014,06,23,15,28,20.20
2014,06,23,15,29,20.20
2014,06,23,15,30,20.10
2014,06,23,15,31,20.10
2014,06,23,15,32,20.10
2014,06,23,15,33,20.00
2014,06,23,15,34,20.10
2014,06,23,15,35,20.00
2014,06,23,15,36,20.10
2014,06,23,15,37,20.10
2014,06,23,15,38,20.10
2014,06,23,15,39,20.10
2014,06,23,15,40,20.10
2014,06,23,15,41,20.10
2014,06,23,15,42,20.10
2014,06,23,15,43,20.10
2014,06,23,15,44,20.10
2014,06,23,15,45,20.10
2014,06,23,15,46,20.00
2014,06,23,15,47,20.00
2014,06,23,15,48,20.00
2014,06,23,15,49,20.00
2014,06,23,15,50,19.90
2014,06,23,15,51,19.90
2014,06,23,15,52,19.90
2014,06,23,15,53,20.00
2014,06,23,15,54,20.00
2014,06,23,15,55,20.00
2014,06,23,15,56,20.00
2014,06,23,15,57,20.00
2014,06,23,15,58,20.00
2014,06,23,15,59,20.00
2014,06,23,16,00,19.90
2014,06,23,16,01,19.90
2014,06,23,16,02,19.90
2014,06,23,16,03,19.80
2014,06,23,16,04,19.80
2014,06,23,16,05,19.70
2014,06,23,16,06,19.70
2014,06,23,16,07,19.60
2014,06,23,16,08,19.60
2014,06,23,16,09,19.50
2014,06,23,16,10,19.50
2014,06,23,16,11,19.50
2014,06,23,16,12,19.40
2014,06,23,16,13,19.40
2014,06,23,16,14,19.40
2014,06,23,16,15,19.40
2014,06,23,16,16,19.40
2014,06,23,16,17,19.40
2014,06,23,16,18,19.40
2014,06,23,16,19,19.40
2014,06,23,16,20,19.40
2014,06,23,16,21,19.40
2014,06,23,16,22,19.40
2014,06,23,16,23,19.30
2014,06,23,16,24,19.30
2014,06,23,16,25,19.30
2014,06,23,16,26,19.30
2014,06,23,16,27,19.30
2014,06,23,16,28,19.30
2014,06,23,16,29,19.30
2014,06,23,16,30,19.30
2014,06,23,16,31,19.30
2014,06,23,16,32,19.30
2014,06,23,16,33,19.20
2014,06,23,16,34,19.20
2014,06,23,16,35,19.20
2014,06,23,16,36,19.20
2014,06,23,16,37,19.20
2014,06,23,16,38,19.10
2014,06,23,16,39,19.10
2014,06,23,16,40,19.10
2014,06,23,16,41,19.00
2014,06,23,16,42,19.00
2014,06,23,16,43,19.00
2014,06,23,16,44,18.90
2014,06,23,16,45,18.90
2014,06,23,16,46,18.90
2014,06,23,16,47,18.90
2014,06,23,16,48,18.80
2014,06,23,16,49,18.80
2014,06,23,16,50,18.90
2014,06,23,16,51,18.90
2014,06,23,16,52,18.90
2014,06,23,16,53,18.90
2014,06,23,16,54,19.00
2014,06,23,16,55,19.10
2014,06,23,16,56,19.10
2014,06,23,16,57,19.20
2014,06,23,16,58,19.30
2014,06,23,16,59,19.30
2014,06,23,17,00,19.30
2014,06,23,17,01,19.30
2014,06,23,17,02,19.30
2014,06,23,17,03,19.30
2014,06,23,17,04,19.30
2014,06,23,17,05,19.30
2014,06,23,17,06,19.30
2014,06,23,17,07,19.20
2014,06,23,17,08,19.20
2014,06,23,17,09,19.20
2014,06,23,17,10,19.20
2014,06,23,17,11,19.10
2014,06,23,17,12,19.10
2014,06,23,17,13,19.10
2014,06,23,17,14,19.10
2014,06,23,17,15,19.10
2014,06,23,17,16,19.10
2014,06,23,17,17,19.10
2014,06,23,17,18,19.10
2014,06,23,17,19,19.10